Location: Piotrkow Trybunalski
(51.4000°N, 19.6830°E)
Time: 18:12:04
(UTC+01:00)

Transit 4A - All Passes

Search period start: 30 January 2023 00:00
Search period end: 09 February 2023 00:00
Orbit: 871 x 973 km, 66.8° (Epoch: 30 January)

Date Brightness Start Highest point End Pass type
(mag) Time Alt. Az. Time Alt. Az. Time Alt. Az.
30 Jan - 01:10:55 10° NNW 01:16:10 32° NNE 01:21:30 10° E night (unlit)
30 Jan - 02:57:11 10° NW 03:03:08 81° SW 03:09:12 10° SSE visible
30 Jan - 04:44:49 10° WNW 04:48:38 18° WSW 04:52:29 10° SW visible
30 Jan - 18:09:19 10° S 18:14:51 47° ESE 18:20:24 10° NE visible
30 Jan - 19:55:41 10° WSW 20:01:15 45° NW 20:06:53 10° NNE visible
30 Jan - 21:44:49 10° WNW 21:49:05 20° NNW 21:53:24 10° NNE visible
30 Jan - 23:33:30 10° NNW 23:37:39 19° NNE 23:41:51 10° ENE night (unlit)
31 Jan - 01:20:07 10° NNW 01:25:39 39° NE 01:31:16 10° ESE night (unlit)
31 Jan - 03:06:27 10° NW 03:12:17 60° WSW 03:18:15 10° SSE night (unlit)
31 Jan - 04:55:24 10° W 04:57:29 12° W 04:59:35 10° WSW night (unlit)
31 Jan - 16:36:21 10° SE 16:38:44 13° ESE 16:41:08 10° ENE daylight
31 Jan - 18:18:13 10° SSW 18:23:57 65° ESE 18:29:45 10° NE visible
31 Jan - 20:05:21 10° WSW 20:10:41 36° NW 20:16:05 10° NNE visible
31 Jan - 21:54:42 10° NW 21:58:46 19° N 22:02:51 10° NE visible
31 Jan - 23:42:53 10° NNW 23:47:19 21° NNE 23:51:47 10° ENE night (unlit)
01 Feb - 01:29:18 10° NNW 01:35:03 49° NE 01:40:55 10° ESE night (unlit)
01 Feb - 03:15:49 10° NW 03:21:24 43° WSW 03:27:05 10° S night (unlit)
01 Feb - 16:43:42 10° SSE 16:47:36 19° ESE 16:51:29 10° ENE daylight
01 Feb - 18:27:18 10° SW 18:33:08 87° SE 18:39:01 10° NE visible
01 Feb - 20:15:08 10° W 20:20:11 30° NNW 20:25:18 10° NNE visible
01 Feb - 22:04:33 10° NW 22:08:28 18° N 22:12:26 10° NE visible
01 Feb - 23:52:13 10° NNW 23:56:56 24° NNE 00:01:44 10° ENE night (unlit)
02 Feb - 01:38:30 10° NW 01:44:24 64° NE 01:50:25 10° SE night (unlit)
02 Feb - 03:25:16 10° NW 03:30:26 31° WSW 03:35:41 10° S night (unlit)
02 Feb - 16:51:46 10° SSE 16:56:31 27° ESE 17:01:17 10° NE daylight
02 Feb - 18:36:34 10° SW 18:42:23 71° NW 18:48:14 10° NE visible
02 Feb - 20:24:59 10° W 20:29:44 25° NNW 20:34:33 10° NNE visible
02 Feb - 22:14:16 10° NW 22:18:11 18° N 22:22:08 10° NE visible
03 Feb - 00:01:28 10° NNW 00:06:31 28° NNE 00:11:39 10° E night (unlit)
03 Feb - 01:47:43 10° NW 01:53:41 84° NE 01:59:46 10° SE night (unlit)
03 Feb - 03:34:55 10° WNW 03:39:24 22° WSW 03:43:57 10° SSW night (unlit)
03 Feb - 17:00:13 10° S 17:05:30 37° ESE 17:10:49 10° NE visible
03 Feb - 18:46:00 10° WSW 18:51:42 54° NW 18:57:27 10° NNE visible
03 Feb - 20:34:53 10° WNW 20:39:21 22° NNW 20:43:51 10° NNE visible
03 Feb - 22:23:52 10° NW 22:27:53 19° N 22:31:58 10° NE visible
04 Feb - 00:10:41 10° NNW 00:16:02 34° NE 00:21:29 10° E night (unlit)
04 Feb - 01:56:58 10° NW 02:02:54 73° WSW 02:08:58 10° SSE night (unlit)
04 Feb - 03:44:55 10° WNW 03:48:18 16° WSW 03:51:43 10° SW night (unlit)
04 Feb - 17:08:57 10° SSW 17:14:34 52° ESE 17:20:13 10° NE visible
04 Feb - 18:55:35 10° WSW 19:01:05 42° NW 19:06:39 10° NNE visible
04 Feb - 20:44:48 10° WNW 20:49:00 20° NNW 20:53:15 10° NNE visible
04 Feb - 22:33:20 10° NNW 22:37:35 20° NNE 22:41:53 10° ENE visible
05 Feb - 00:19:52 10° NNW 00:25:30 42° NE 00:31:13 10° ESE night (unlit)
05 Feb - 02:06:15 10° NW 02:12:03 54° WSW 02:17:57 10° SSE night (unlit)
05 Feb - 03:56:26 10° W 03:57:07 10° W 03:57:49 10° WSW night (unlit)
05 Feb - 15:35:21 10° SE 15:38:23 15° ESE 15:41:25 10° ENE daylight
05 Feb - 17:17:55 10° SSW 17:23:42 72° ESE 17:29:32 10° NE visible
05 Feb - 19:05:17 10° W 19:10:32 34° NNW 19:15:51 10° NNE visible
05 Feb - 20:54:41 10° NW 20:58:42 18° N 21:02:45 10° NE visible
05 Feb - 22:42:42 10° NNW 22:47:14 22° NNE 22:51:50 10° ENE visible
06 Feb - 00:29:04 10° NNW 00:34:53 54° NE 00:40:49 10° ESE night (unlit)
06 Feb - 02:15:39 10° NW 02:21:07 39° WSW 02:26:41 10° S night (unlit)
06 Feb - 15:43:01 10° SSE 15:47:15 21° ESE 15:51:30 10° ENE daylight
06 Feb - 17:27:04 10° SW 17:32:54 85° NW 17:38:48 10° NE visible
06 Feb - 19:15:05 10° W 19:20:04 28° NNW 19:25:05 10° NNE visible
06 Feb - 21:04:29 10° NW 21:08:24 18° N 21:12:22 10° NE visible
06 Feb - 22:51:59 10° NNW 22:56:51 25° NNE 23:01:46 10° E visible
07 Feb - 00:38:15 10° NW 00:44:12 71° NE 00:50:17 10° SE night (unlit)
07 Feb - 02:25:09 10° NW 02:30:07 28° WSW 02:35:12 10° SSW night (unlit)
07 Feb - 15:51:15 10° S 15:56:12 30° ESE 16:01:11 10° NE daylight
07 Feb - 17:36:24 10° SW 17:42:10 64° NW 17:48:01 10° NE visible
07 Feb - 19:24:58 10° WNW 19:29:39 24° NNW 19:34:20 10° NNE visible
07 Feb - 21:14:10 10° NW 21:18:07 18° N 21:22:07 10° NE visible
07 Feb - 23:01:14 10° NNW 23:06:24 30° NNE 23:11:39 10° E visible
08 Feb - 00:47:29 10° NW 00:53:27 88° WSW 00:59:34 10° SE night (unlit)
08 Feb - 02:34:53 10° WNW 02:39:04 20° WSW 02:43:19 10° SSW night (unlit)
08 Feb - 15:59:48 10° S 16:05:13 42° ESE 16:10:40 10° NE daylight
08 Feb - 17:45:53 10° WSW 17:51:31 49° NW 17:57:13 10° NNE visible
08 Feb - 19:34:53 10° WNW 19:39:15 21° NNW 19:43:41 10° NNE visible
08 Feb - 21:23:43 10° NW 21:27:49 19° N 21:31:59 10° NE visible
08 Feb - 23:10:26 10° NNW 23:15:54 37° NE 23:21:28 10° ESE visible
